Location: Bramevaque
(42.9773°N, 0.5757°E)
Time: 10:24:11
(UTC+00:00)

Cosmos 2227 Rocket - Pass Details

Date: 15 May 2026
Orbit: 837 x 844 km, 71.0° (Epoch: 5 June)

Event Time Altitude Azimuth Distance (km) Brightness Sun altitude
Exits shadow 22:55:54 14° 83° (E) 2,179 4.2 -26.5°
Drops below altitude 10° 22:57:47 10° 64° (ENE) 2,468 4.7 -26.6°
Sets 23:01:16 0° 43° (NE) 3,409 5.8 -26.8°
